Location: Carnières
(50.1682°N, 3.3474°E)
Time: 20:24:35
(UTC+00:00)

SL-16 R/B - Pass Details

Date: 12 August 2024
Orbit: 842 x 845 km, 71.0° (Epoch: 10 September)

Event Time Altitude Azimuth Distance (km) Brightness Sun altitude
Exits shadow 00:28:13 44° 249° (WSW) 1,163 2.6 -24.5°
Maximum altitude 00:29:48 60° 304° (NW) 969 2.5 -24.4°
Drops below altitude 10° 00:35:26 10° 24° (NNE) 2,477 5.7 -24.3°
Sets 00:37:56 0° 28° (NNE) 3,416 6.6 -24.2°
